CZ-4 DEB, 26137

Orbit data source: Space-Track

CZ-4 DEB, 26137 is space debris in SSO originally from a launch on Thu, 14 Oct 1999 UTC launched from the Taiyaun Space Center, China (TSC). Debris objects in space refer to the collection of defunct objects orbiting the Earth. Examples of debris include non-operational satellites, rocket bodies, and fragments generated from explosions, collisions, or faulty payload assembly.

Loading next visibility...
Identifier
26137, 1999-057Z
Orbit
SSO
Country
Flag of CNCN / PRC
Related business
Manufacturer
Unknown
Mission
Spacecraft
Bus & Motor
Unknown
Mass
Unknown
Launch date (UTC)
1999-10-14 (27 years ago)
Launch vehicle
Unknown
Launch site
Taiyaun Space Center, China (TSC)
Object type
Payload
Rocket body
Debris
Shape & HBR
Unknown shape, 0.1 m
Radar Cross Section
Medium (>0.1 m² and <1 m²)

Expand to show TLE details & history
Last TLE update: 19 hours ago

TLE from 19 hours ago
0 CZ-4 DEB
1 26137U 99057Z   26171.28728867  .00000674  00000-0  26875-3 0  9992
2 26137  98.9318 294.2532 0289783  44.3366  12.1898 14.11385561336836
Epoch: 2026-06-20T06:53Z
TLE epoch observation values (Epoch: 2026-06-20T06:53:41.741Z)
Latitude
56.29131°
Longitude
-91.22513°
Altitude
659.357 km
Speed
7.639 km/s
True Right ascension
18h 42m 48s
True Declination
56° 07' 48"
Sunlit
Object was in daylight at epoch
Visualization orbit readout
Latitude
Unknown
Longitude
Unknown
Altitude
Unknown
Speed
Unknown
Apparent Right ascension
Unknown
Apparent Declination
Unknown
Sunlit
N/A
Visualization observer readout
Local Sidereal Time
12:58:00
Azimuth
Unknown
Elevation
Unknown
Doppler factor
Unknown
Orbital elements
Apogee altitude
1,061.323 km
Perigee altitude
642.3 km
Semi-major axis
7,229.949 km
Eccentricity
0.02898
Inclination
98.9318°
RAAN
294.2532°
Arg. of periapsis
44.3366°
True anomaly
12.91664°
Mean anomaly
12.1898°
Eccentric anomaly
12.55059°
Mean motion
3.53053 °/min
Orbital period
101.97 mins
BSTAR
0.00026875
Loading maneuver chart data...
Computing Atmospheric mass density...

Documentation

Showing up to 5 results
|